FW9690 Weather Reports


time (UTC)temp
C
wind
direction
speed
KPH
gust
KPH
rain 1hr
cm
rain 24hr
cm
rain mn
cm
humidity
%
barometer
mb
20260507170044 15 273 3.2 11.3 0.00 0.00 0.00 63 998.0
20260507164529 14 175 4.8 12.9 0.00 0.00 0.00 65 998.1
20260507163027 13 342 1.6 14.5 0.00 0.00 0.00 68 998.4
20260507161523 12 130 11.3 16.1 0.00 0.00 0.00 71 998.5
20260507160021 12 86 9.7 17.7 0.00 0.00 0.00 71 998.6
20260507154506 11 93 9.7 22.5 0.00 0.00 0.00 73 998.8
20260507153002 11 110 17.7 24.1 0.00 0.00 0.00 74 998.8
20260507151501 11 111 17.7 24.1 0.00 0.00 0.00 74 998.9
20260507150100 11 66 14.5 22.5 0.00 0.00 0.00 75 998.8
20260507150001 11 84 16.1 22.5 0.00 0.00 0.00 75 998.9
20260507144516 11 80 14.5 20.9 0.00 0.00 0.00 75 998.9
20260507143014 10 98 19.3 24.1 0.00 0.00 0.00 76 999.0
20260507141513 10 81 14.5 20.9 0.00 0.00 0.00 76 999.1
20260507140012 10 74 11.3 20.9 0.00 0.00 0.00 77 999.1
20260507134557 10 76 16.1 22.5 0.00 0.00 0.00 77 999.1
20260507133056 10 63 19.3 29.0 0.00 0.00 0.00 77 998.8
20260507131554 10 85 22.5 27.4 0.00 0.00 0.00 77 998.6
20260507124549 10 84 16.1 27.4 0.00 0.00 0.00 78 998.0
20260507123050 10 57 19.3 25.7 0.00 0.00 0.00 78 997.8
20260507121547 10 71 19.3 29.0 0.00 0.00 0.00 78 997.5
20260507120047 10 54 20.9 27.4 0.00 0.00 0.00 77 997.4
20260507114544 10 84 19.3 32.2 0.00 0.00 0.00 76 996.9
20260507113042 10 69 20.9 30.6 0.00 0.00 0.00 75 997.0
20260507111543 10 80 24.1 37.0 0.00 0.00 0.00 73 996.6
20260507110037 10 65 27.4 38.6 0.00 0.00 0.00 72 996.6
20260507104543 10 80 22.5 35.4 0.00 0.00 0.00 71 996.3
20260507103041 11 93 22.5 37.0 0.00 0.00 0.00 71 996.2
20260507101545 11 79 25.7 35.4 0.00 0.00 0.00 70 996.3
20260507100040 11 59 24.1 33.8 0.00 0.00 0.00 69 996.2
20260507094540 11 70 22.5 32.2 0.00 0.00 0.00 68 995.9
20260507093034 11 88 22.5 30.6 0.00 0.00 0.00 68 995.8
20260507091627 11 80 17.7 32.2 0.00 0.00 0.00 66 995.7
20260507090032 12 59 17.7 27.4 0.00 0.00 0.00 65 995.6
20260507084519 12 43 19.3 24.1 0.00 0.00 0.00 62 995.6
20260507083009 12 319 12.9 24.1 0.00 0.00 0.00 52 995.6
20260507081515 13 335 12.9 17.7 0.00 0.00 0.00 46 995.4
20260507074502 14 321 14.5 19.3 0.00 0.00 0.00 53 994.8
20260507073103 16 93 8.0 11.3 0.00 0.00 0.00 50 994.4
20260507071601 16 141 1.6 11.3 0.00 0.00 0.00 48 994.5
20260507064552 16 104 1.6 24.1 0.00 0.00 0.00 39 993.8
20260507063051 17 270 11.3 14.5 0.00 0.00 0.00 27 993.4
20260507061647 18 275 12.9 16.1 0.00 0.00 0.00 25 993.3
20260507060052 18 252 12.9 16.1 0.00 0.00 0.00 25 993.0
20260507054551 18 273 12.9 16.1 0.00 0.00 0.00 26 993.0
20260507053054 17 269 12.9 16.1 0.00 0.00 0.00 27 992.8
20260507051549 17 281 12.9 17.7 0.00 0.00 0.00 28 992.8
20260507050049 17 280 16.1 20.9 0.00 0.00 0.00 29 992.7
20260507044606 17 273 19.3 20.9 0.00 0.00 0.00 30 992.6
20260507043059 18 291 11.3 14.5 0.00 0.00 0.00 26 992.5
20260507041554 20 282 11.3 12.9 0.00 0.00 0.00 23 992.3
20260507040052 19 281 6.4 11.3 0.00 0.00 0.00 24 992.2
20260507034558 19 279 4.8 11.3 0.00 0.00 0.00 25 992.0
20260507033049 19 265 4.8 14.5 0.00 0.00 0.00 25 991.8
20260507031550 19 243 16.1 17.7 0.00 0.00 0.00 25 991.6
20260507030054 20 244 14.5 17.7 0.00 0.00 0.00 24 991.3
20260507024543 20 252 12.9 17.7 0.00 0.00 0.00 24 991.2
20260507023039 20 243 12.9 16.1 0.00 0.00 0.00 24 990.9
20260507021537 21 254 16.1 17.7 0.00 0.00 0.00 23 990.7
20260507020046 22 248 14.5 20.9 0.00 0.00 0.00 20 990.2
20260507014553 23 246 19.3 25.7 0.00 0.00 0.00 20 989.9
20260507013058 23 244 19.3 33.8 0.00 0.00 0.00 19 989.8
20260507011550 24 229 20.9 30.6 0.00 0.00 0.00 18 989.6
20260507010048 25 237 24.1 41.8 0.00 0.00 0.00 17 989.6
20260507004540 25 228 29.0 45.1 0.00 0.00 0.00 17 989.4
20260507003045 25 246 35.4 46.7 0.00 0.00 0.00 17 989.2
20260507001542 26 226 40.2 56.3 0.00 0.00 0.00 17 988.9
20260507000040 26 221 30.6 56.3 0.00 0.00 0.00 17 988.8
20260506234532 26 225 33.8 51.5 0.00 0.00 0.00 17 988.9
20260506233031 26 225 32.2 53.1 0.00 0.00 0.00 16 988.7
20260506231530 26 226 24.1 45.1 0.00 0.00 0.00 17 988.7
20260506230032 26 198 25.7 38.6 0.00 0.00 0.00 18 988.6
20260506224547 26 241 37.0 51.5 0.00 0.00 0.00 18 988.4
20260506223037 26 233 30.6 40.2 0.00 0.00 0.00 18 988.4
20260506221534 26 225 30.6 48.3 0.00 0.00 0.00 18 988.4
20260506220037 26 235 27.4 41.8 0.00 0.00 0.00 19 988.6
20260506214530 26 248 27.4 38.6 0.00 0.00 0.00 19 988.7
20260506213026 26 232 25.7 35.4 0.00 0.00 0.00 20 988.9
20260506211527 25 203 20.9 35.4 0.00 0.00 0.00 21 988.9
20260506210024 25 233 20.9 37.0 0.00 0.00 0.00 22 989.1
20260506204532 25 202 24.1 35.4 0.00 0.00 0.00 24 989.4
20260506203033 25 198 24.1 40.2 0.00 0.00 0.00 24 989.7
20260506201531 24 196 24.1 38.6 0.00 0.00 0.00 25 989.8
20260506200032 25 263 29.0 40.2 0.00 0.00 0.00 25 990.0
20260506194611 23 225 22.5 35.4 0.00 0.00 0.00 27 990.1
20260506193009 23 214 24.1 38.6 0.00 0.00 0.00 26 990.2
20260506191509 23 248 22.5 41.8 0.00 0.00 0.00 27 990.4
20260506190009 23 232 25.7 38.6 0.00 0.00 0.00 27 990.6
20260506184529 23 262 19.3 32.2 0.00 0.00 0.00 28 990.7
20260506183024 23 267 22.5 33.8 0.00 0.00 0.00 28 990.9
20260506181521 22 229 16.1 29.0 0.00 0.00 0.00 35 991.1
20260506180024 21 128 9.7 25.7 0.00 0.00 0.00 39 991.4
20260506174515 20 138 9.7 27.4 0.00 0.00 0.00 42 991.6
20260506173014 20 121 16.1 22.5 0.00 0.00 0.00 43 991.7
20260506171513 20 110 12.9 22.5 0.00 0.00 0.00 45 991.7